Roskilde, Denmark

12:54 PM CET on February 13, 2016 (GMT +0100)
Roskilde

Weather History for EKRK - February, 2013

Change the Weather History Date:

Wednesday, February 20, 2013

  Actual Average Record
Temperature  
Mean Temperature 30 °F -  
Max Temperature 32 °F 40 °F - (-1)
Min Temperature 28 °F 28 °F - (-1)
Degree Days  
Heating Degree Days 35    
Moisture  
Dew Point 22 °F    
Average Humidity 70    
Maximum Humidity 86    
Minimum Humidity 55    
Precipitation  
Precipitation 0.00 in - - ()
Sea Level Pressure  
Sea Level Pressure 30.32 in    
Wind  
Wind Speed 11 mph ()    
Max Wind Speed 15 mph    
Max Gust Speed 24 mph    
Visibility 6.2 miles    
Events Snow    
Averages and records for this station are not official NWS values.
T = Trace of Precipitation, MM = Missing Value Source: Averaged Metar Reports

Daily Weather History Graph

Daily Weather History Graph

Search for Another Location

Airport or City:

Trip Planner

Search our weather history database for the weather conditions in past years. The results will help you decide how hot, cold, wet, or windy it might be!

Date:

Astronomy

Feb. 20, 2013 Rise Set
Actual Time 7:23 AM CET 5:27 PM CET
Civil Twilight 6:46 AM CET 6:05 PM CET
Nautical Twilight 6:03 AM CET 6:47 PM CET
Astronomical Twilight 5:21 AM CET 7:30 PM CET
Moon 12:00 PM CET (2/20) 4:05 AM CET (2/20)
Length of Visible Light 11h 19m
Length of Day
10h 03m
Waxing Gibbous, 74% of the Moon is Illuminated
Feb 20
Waxing Gibbous
Feb 25
Full
Mar 4
Last Quarter
Mar 11
New
Mar 19
First Quarter

Hourly Weather History & Observations

Time (CET) Temp. Windchill Dew Point Humidity Pressure Visibility Wind Dir Wind Speed Gust Speed Precip Events Conditions
12:20 AM 30.2 °F 19.8 °F 24.8 °F 80% 30.21 in 6.2 mi North 13.8 mph - N/A   Mostly Cloudy
1:20 AM 30.2 °F 20.8 °F 24.8 °F 80% 30.21 in 6.2 mi North 11.5 mph - N/A   Mostly Cloudy
1:50 AM 30.2 °F 20.2 °F 24.8 °F 80% 30.21 in 6.2 mi North 12.7 mph - N/A   Overcast
2:20 AM 30.2 °F 20.2 °F 24.8 °F 80% 30.24 in 6.2 mi North 12.7 mph - N/A   Overcast
2:50 AM 30.2 °F 21.3 °F 24.8 °F 80% 30.24 in 6.2 mi North 10.4 mph - N/A   Overcast
3:20 AM 30.2 °F 20.2 °F 24.8 °F 80% 30.24 in 6.2 mi North 12.7 mph - N/A Snow Light Snow
3:50 AM 30.2 °F 20.2 °F 24.8 °F 80% 30.24 in 6.2 mi North 12.7 mph - N/A Snow Light Snow
4:20 AM 30.2 °F 19.8 °F 24.8 °F 80% 30.24 in 6.2 mi North 13.8 mph - N/A Snow Light Snow
4:50 AM 30.2 °F 19.8 °F 24.8 °F 80% 30.24 in 6.2 mi North 13.8 mph - N/A Snow Light Snow Showers
5:20 AM 30.2 °F 19.8 °F 24.8 °F 80% 30.27 in 6.2 mi North 13.8 mph - N/A   Overcast
5:50 AM 30.2 °F 19.3 °F 23.0 °F 75% 30.27 in 6.2 mi North 15.0 mph - N/A   Mostly Cloudy
6:20 AM 30.2 °F 19.8 °F 23.0 °F 75% 30.27 in 6.2 mi North 13.8 mph - N/A   Overcast
6:50 AM 30.2 °F 20.2 °F 23.0 °F 75% 30.27 in 6.2 mi NNE 12.7 mph - N/A   Overcast
7:20 AM 30.2 °F 19.3 °F 17.6 °F 60% 30.30 in 6.2 mi NNE 15.0 mph - N/A   Overcast
7:50 AM 30.2 °F 19.8 °F 19.4 °F 64% 30.30 in 6.2 mi NNE 13.8 mph - N/A   Overcast
8:20 AM 30.2 °F 20.2 °F 21.2 °F 69% 30.30 in 6.2 mi NNE 12.7 mph - N/A   Overcast
8:50 AM 30.2 °F 21.3 °F 23.0 °F 75% 30.30 in 6.2 mi NNE 10.4 mph - N/A Snow Light Snow
9:20 AM 30.2 °F 21.3 °F 26.6 °F 86% 30.30 in 6.2 mi North 10.4 mph - N/A Snow Light Snow
9:50 AM 30.2 °F 20.8 °F 24.8 °F 80% 30.33 in 6.2 mi North 11.5 mph - N/A Snow Light Snow
10:20 AM 30.2 °F 21.3 °F 26.6 °F 86% 30.33 in 6.2 mi NNE 10.4 mph - N/A Snow Light Snow
10:50 AM 30.2 °F 20.2 °F 17.6 °F 60% 30.33 in 6.2 mi NNE 12.7 mph - N/A   Mostly Cloudy
11:20 AM 32.0 °F 22.5 °F 17.6 °F 55% 30.33 in 6.2 mi NNE 12.7 mph - N/A   Scattered Clouds
11:50 AM 32.0 °F 22.1 °F 19.4 °F 60% 30.33 in 6.2 mi NNE 13.8 mph - N/A   Mostly Cloudy
12:20 PM 32.0 °F 23.0 °F 19.4 °F 60% 30.33 in 6.2 mi NNE 11.5 mph - N/A   Mostly Cloudy
12:50 PM 32.0 °F 22.1 °F 17.6 °F 55% 30.33 in 6.2 mi NNE 13.8 mph - N/A   Mostly Cloudy
1:20 PM 32.0 °F 21.6 °F 19.4 °F 60% 30.33 in 6.2 mi NNE 15.0 mph - N/A   Overcast
1:50 PM 32.0 °F 22.1 °F 19.4 °F 60% 30.33 in 6.2 mi NNE 13.8 mph - N/A   Mostly Cloudy
2:20 PM 32.0 °F 23.6 °F 19.4 °F 60% 30.33 in 6.2 mi NNE 10.4 mph - N/A   Mostly Cloudy
2:50 PM 30.2 °F 20.2 °F 19.4 °F 64% 30.33 in 6.2 mi NNE 12.7 mph - N/A   Mostly Cloudy
3:20 PM 30.2 °F 19.8 °F 21.2 °F 69% 30.36 in 6.2 mi NNE 13.8 mph - N/A   Mostly Cloudy
3:50 PM 30.2 °F 20.2 °F 19.4 °F 64% 30.36 in 6.2 mi NNE 12.7 mph - N/A Snow Light Snow Showers
4:20 PM 30.2 °F 20.8 °F 21.2 °F 69% 30.36 in 6.2 mi NNE 11.5 mph - N/A Snow Light Snow Showers
4:50 PM 30.2 °F 20.2 °F 21.2 °F 69% 30.36 in 6.2 mi NNE 12.7 mph - N/A   Overcast
5:20 PM 30.2 °F 20.8 °F 21.2 °F 69% 30.36 in 6.2 mi North 11.5 mph - N/A Snow Light Snow Showers
5:50 PM 30.2 °F 21.3 °F 21.2 °F 69% 30.36 in 6.2 mi North 10.4 mph - N/A   Overcast
6:20 PM 30.2 °F 20.8 °F 21.2 °F 69% 30.36 in 6.2 mi NNE 11.5 mph - N/A   Overcast
6:50 PM 30.2 °F 20.8 °F 19.4 °F 64% 30.36 in 6.2 mi NNE 11.5 mph - N/A   Mostly Cloudy
7:20 PM 30.2 °F 20.2 °F 19.4 °F 64% 30.36 in 6.2 mi NE 12.7 mph 24.2 mph N/A   Overcast
7:50 PM 30.2 °F 20.8 °F 19.4 °F 64% 30.39 in 6.2 mi NE 11.5 mph - N/A Snow Light Snow Showers
8:20 PM 30.2 °F 21.3 °F 21.2 °F 69% 30.39 in 6.2 mi NNE 10.4 mph - N/A   Overcast
8:50 PM 30.2 °F 21.3 °F 19.4 °F 64% 30.39 in 6.2 mi NNE 10.4 mph - N/A   Overcast
9:20 PM 28.4 °F 19.1 °F 19.4 °F 69% 30.39 in 6.2 mi North 10.4 mph - N/A   Overcast
9:50 PM 28.4 °F 19.7 °F 21.2 °F 74% 30.39 in 6.2 mi North 9.2 mph - N/A   Overcast
10:20 PM 28.4 °F 18.5 °F 19.4 °F 69% 30.39 in 6.2 mi NNE 11.5 mph - N/A   Overcast
10:50 PM 28.4 °F 18.5 °F 21.2 °F 74% 30.39 in 6.2 mi NNE 11.5 mph - N/A Snow Light Snow Showers
11:20 PM 28.4 °F 18.0 °F 19.4 °F 69% 30.39 in 6.2 mi NNE 12.7 mph - N/A Snow Light Snow Showers
11:50 PM 28.4 °F 18.5 °F 19.4 °F 69% 30.39 in 6.2 mi NNE 11.5 mph - N/A Snow Light Snow Showers